{"data":{"norad_id":68480,"epoch":"2026-09-19T16:29:04.902720Z","epoch_age_seconds":139167,"freshness":"FRESH","line1":"1 68480U 26067BS  26262.68686230  .00002034  00000+0  19905-3 0  9999","line2":"2 68480  97.7726 219.9063 0003130 343.2449  16.8666 14.93409815 25837","mean_motion":14.93409815,"eccentricity":0.000313,"inclination_deg":97.7726,"raan_deg":219.9063,"arg_perigee_deg":343.2449,"mean_anomaly_deg":16.8666,"bstar":0.00019905,"rev_number":2583,"period_min":96.423633053463,"perigee_km":585.13272957892,"apogee_km":589.49310122596,"semimajor_km":6965.4499154024,"source":"CELESTRAK","updated_at":"2026-09-20T09:00:24.244734Z"}}